Time,TemperatureF,DewpointF,PressureIn,WindDirection,WindDirectionDegrees,WindSpeedMPH,WindSpeedGustMPH,Humidity,HourlyPrecipIn,Conditions,Clouds,dailyrainin,SolarRadiationWatts/m^2,SoftwareType,DateUTC
2013-01-09 00:12:00,44.0,38.0,-100.00,South,189,16.0,31.0,80,-99.99,,,0.00,0.000000,,2013-01-09 08:12:00,
2013-01-09 01:12:00,44.0,38.0,-100.00,SSW,207,8.0,24.0,76,-99.99,,,0.00,0.000000,,2013-01-09 09:12:00,
2013-01-09 02:11:00,46.0,37.0,-100.00,South,190,16.0,36.0,71,-99.99,,,0.00,0.000000,,2013-01-09 10:11:00,
2013-01-09 03:12:00,45.0,36.0,-100.00,South,191,11.0,29.0,69,-99.99,,,0.00,0.000000,,2013-01-09 11:12:00,
2013-01-09 03:42:00,46.0,35.0,-100.00,South,181,20.0,31.0,66,-99.99,,,0.00,0.000000,,2013-01-09 11:42:00,
2013-01-09 03:53:00,46.0,35.0,-100.00,South,181,20.0,31.0,66,-99.99,,,0.00,0.000000,,2013-01-09 11:53:00,
2013-01-09 04:03:00,46.0,35.0,-100.00,South,181,20.0,31.0,66,-99.99,,,0.00,0.000000,,2013-01-09 12:03:00,
2013-01-09 04:12:00,46.0,35.0,-100.00,South,181,20.0,31.0,66,-99.99,,,0.00,0.000000,,2013-01-09 12:12:00,
2013-01-09 04:42:00,45.0,35.0,-100.00,South,181,13.0,23.0,67,-99.99,,,0.00,0.000000,,2013-01-09 12:42:00,
2013-01-09 04:53:00,45.0,35.0,-100.00,South,181,13.0,23.0,67,-99.99,,,0.00,0.000000,,2013-01-09 12:53:00,
2013-01-09 05:02:00,45.0,35.0,-100.00,South,181,13.0,23.0,67,-99.99,,,0.00,0.000000,,2013-01-09 13:02:00,
2013-01-09 05:12:00,45.0,35.0,-100.00,South,181,13.0,23.0,67,-99.99,,,0.00,0.000000,,2013-01-09 13:12:00,
2013-01-09 05:33:00,45.0,34.0,-100.00,South,170,15.0,29.0,65,-99.99,,,0.00,0.000000,,2013-01-09 13:33:00,
2013-01-09 05:42:00,45.0,34.0,-100.00,South,170,15.0,29.0,65,-99.99,,,0.00,0.000000,,2013-01-09 13:42:00,
2013-01-09 05:53:00,45.0,34.0,-100.00,South,170,15.0,29.0,65,-99.99,,,0.00,0.000000,,2013-01-09 13:53:00,
2013-01-09 06:02:00,45.0,34.0,-100.00,South,170,15.0,29.0,65,-99.99,,,0.00,0.000000,,2013-01-09 14:02:00,
2013-01-09 06:12:00,45.0,34.0,-100.00,South,170,15.0,29.0,65,-99.99,,,0.00,0.000000,,2013-01-09 14:12:00,
2013-01-09 06:43:00,47.0,33.0,-100.00,South,174,17.0,26.0,57,-99.99,,,0.00,0.000000,,2013-01-09 14:43:00,
2013-01-09 06:53:00,47.0,33.0,-100.00,South,174,17.0,26.0,57,-99.99,,,0.00,0.000000,,2013-01-09 14:53:00,
2013-01-09 07:03:00,47.0,33.0,-100.00,South,174,17.0,26.0,57,-99.99,,,0.00,0.000000,,2013-01-09 15:03:00,
2013-01-09 07:12:00,47.0,33.0,-100.00,South,174,17.0,26.0,57,-99.99,,,0.00,0.000000,,2013-01-09 15:12:00,
2013-01-09 07:42:00,47.0,33.0,-100.00,SSE,165,10.0,24.0,57,-99.99,,,0.00,0.000000,,2013-01-09 15:42:00,
2013-01-09 07:53:00,47.0,33.0,-100.00,SSE,165,10.0,24.0,57,-99.99,,,0.00,0.000000,,2013-01-09 15:53:00,
2013-01-09 08:03:00,47.0,33.0,-100.00,SSE,165,10.0,24.0,57,-99.99,,,0.00,0.000000,,2013-01-09 16:03:00,
2013-01-09 08:12:00,47.0,33.0,-100.00,SSE,165,10.0,24.0,57,-99.99,,,0.00,0.000000,,2013-01-09 16:12:00,
2013-01-09 08:42:00,45.0,34.0,-100.00,ESE,109,6.0,14.0,64,-99.99,,,0.00,17.080000,,2013-01-09 16:42:00,
2013-01-09 08:53:00,45.0,34.0,-100.00,ESE,109,6.0,14.0,64,-99.99,,,0.00,17.080000,,2013-01-09 16:53:00,
2013-01-09 09:02:00,45.0,34.0,-100.00,ESE,109,6.0,14.0,64,-99.99,,,0.00,17.080000,,2013-01-09 17:02:00,
2013-01-09 09:12:00,45.0,34.0,-100.00,ESE,109,6.0,14.0,64,-99.99,,,0.00,17.080000,,2013-01-09 17:12:00,
2013-01-09 10:12:00,45.0,34.0,-100.00,ESE,106,6.0,23.0,64,-99.99,,,0.00,75.309998,,2013-01-09 18:12:00,
2013-01-09 10:33:00,46.0,36.0,-100.00,SE,128,4.0,13.0,66,-99.99,,,0.00,96.000000,,2013-01-09 18:33:00,
2013-01-09 10:43:00,46.0,36.0,-100.00,SE,128,4.0,13.0,66,-99.99,,,0.00,96.000000,,2013-01-09 18:43:00,
2013-01-09 10:53:00,46.0,36.0,-100.00,SE,128,4.0,13.0,66,-99.99,,,0.00,96.000000,,2013-01-09 18:53:00,
2013-01-09 11:02:00,46.0,36.0,-100.00,SE,128,4.0,13.0,66,-99.99,,,0.00,96.000000,,2013-01-09 19:02:00,
2013-01-09 11:12:00,46.0,36.0,-100.00,SE,128,4.0,13.0,66,-99.99,,,0.00,96.000000,,2013-01-09 19:12:00,
2013-01-09 13:12:00,47.0,35.0,-100.00,WSW,240,8.0,19.0,62,-99.99,,,0.00,282.649994,,2013-01-09 21:12:00,
2013-01-09 13:43:00,45.0,35.0,-100.00,SW,235,5.0,15.0,68,-99.99,,,0.00,155.619995,,2013-01-09 21:43:00,
2013-01-09 13:53:00,45.0,35.0,-100.00,SW,235,5.0,15.0,68,-99.99,,,0.00,155.619995,,2013-01-09 21:53:00,
2013-01-09 14:03:00,45.0,35.0,-100.00,SW,235,5.0,15.0,68,-99.99,,,0.00,155.619995,,2013-01-09 22:03:00,
2013-01-09 14:12:00,45.0,35.0,-100.00,SW,235,5.0,15.0,68,-99.99,,,0.00,155.619995,,2013-01-09 22:12:00,
2013-01-09 14:42:00,44.0,34.0,-100.00,NW,318,4.0,12.0,68,-99.99,,,0.00,97.040001,,2013-01-09 22:42:00,
2013-01-09 14:52:00,44.0,34.0,-100.00,NW,318,4.0,12.0,68,-99.99,,,0.00,97.040001,,2013-01-09 22:52:00,
2013-01-09 15:02:00,44.0,34.0,-100.00,NW,318,4.0,12.0,68,-99.99,,,0.00,97.040001,,2013-01-09 23:02:00,
2013-01-09 15:12:00,44.0,34.0,-100.00,NW,318,4.0,12.0,68,-99.99,,,0.00,97.040001,,2013-01-09 23:12:00,
2013-01-09 15:42:00,43.0,34.0,-100.00,South,190,4.0,9.0,72,-99.99,,,0.00,54.860001,,2013-01-09 23:42:00,
2013-01-09 15:53:00,43.0,34.0,-100.00,South,190,4.0,9.0,72,-99.99,,,0.00,54.860001,,2013-01-09 23:53:00,
2013-01-09 16:02:00,43.0,34.0,-100.00,South,190,4.0,9.0,72,-99.99,,,0.00,54.860001,,2013-01-10 00:02:00,
2013-01-09 16:12:00,43.0,34.0,-100.00,South,190,4.0,9.0,72,-99.99,,,0.00,54.860001,,2013-01-10 00:12:00,
2013-01-09 17:12:00,42.0,33.0,-100.00,WSW,243,3.0,7.0,68,-99.99,,,0.00,9.180000,,2013-01-10 01:12:00,
2013-01-09 17:42:00,42.0,32.0,-100.00,West,272,2.0,5.0,68,-99.99,,,0.00,0.000000,,2013-01-10 01:42:00,
2013-01-09 17:53:00,42.0,32.0,-100.00,West,272,2.0,5.0,68,-99.99,,,0.00,0.000000,,2013-01-10 01:53:00,
2013-01-09 18:02:00,42.0,32.0,-100.00,West,272,2.0,5.0,68,-99.99,,,0.00,0.000000,,2013-01-10 02:02:00,
2013-01-09 18:12:00,42.0,32.0,-100.00,West,272,2.0,5.0,68,-99.99,,,0.00,0.000000,,2013-01-10 02:12:00,
2013-01-09 19:12:00,41.0,33.0,-100.00,West,262,4.0,6.0,72,-99.99,,,0.00,0.000000,,2013-01-10 03:12:00,
2013-01-09 20:12:00,39.0,30.0,-100.00,NNW,342,2.0,3.0,70,-99.99,,,0.00,0.000000,,2013-01-10 04:12:00,
2013-01-09 21:12:00,40.0,28.0,-100.00,NW,309,3.0,8.0,63,-99.99,,,0.00,0.000000,,2013-01-10 05:12:00,
2013-01-09 22:11:00,38.0,28.0,-100.00,NNW,334,2.0,4.0,66,-99.99,,,-99.99,0.000000,,2013-01-10 06:11:00,
2013-01-09 23:12:00,37.0,29.0,-100.00,NNW,329,3.0,5.0,71,-99.99,,,0.00,0.000000,,2013-01-10 07:12:00,